Waarnemingen

Advertentie
Mijn weer
Dunkerque, Frankrijk (7010): temperatuur & dauwpunt: 17.07.2017 08:00:00 - 23.07.2017 08:00:00 (CEST)Dunkerque, Frankrijk (7010): windsnelheid & windstoten: 17.07.2017 08:00:00 - 23.07.2017 08:00:00 (CEST)Dunkerque, Frankrijk (7010): windrichting: 17.07.2017 08:00:00 - 23.07.2017 08:00:00 (CEST)Dunkerque, Frankrijk (7010): luchtdruk: 17.07.2017 08:00:00 - 23.07.2017 08:00:00 (CEST)Dunkerque, Frankrijk (7010): zicht: 17.07.2017 08:00:00 - 23.07.2017 08:00:00 (CEST)Dunkerque, Frankrijk (7010): neerslag: 17.07.2017 08:00:00 - 23.07.2017 08:00:00 (CEST)
Datum & Tijd tt [°C] td [°C] ff [km/u] ff [kn] fx [km/u] fx [kn] dd ppp [hPa] vv [km] rr [mm]
23.07.2017 08:00:00 14,6 12,3 19 10 33 18 Z 1010,7 - 0,0
23.07.2017 07:00:00 13,6 11,8 21 11 32 17 Z 1010,7 - 0,4
23.07.2017 06:00:00 13,3 11,7 17 9 26 14 Z 1010,5 - 1,6
23.07.2017 05:00:00 13,3 11,4 15 8 24 13 Z 1010,6 - 2,0
23.07.2017 04:00:00 13,9 10,5 16 9 25 14 Z 1010,8 - 0,2
23.07.2017 03:00:00 14,2 10,6 13 7 19 10 Z 1011,1 - 0,0
23.07.2017 02:00:00 14,3 11,1 12 7 21 11 Z 1011,4 18 0,0
23.07.2017 01:00:00 15,4 11,0 11 6 17 9 Z 1011,7 - 0,0
23.07.2017 00:00:00 15,9 11,1 12 6 16 9 Z 1011,8 - 0,0
22.07.2017 23:00:00 16,1 10,2 11 6 21 11 Z 1011,5 15 0,0
22.07.2017 22:00:00 16,4 10,5 14 7 29 16 ZW 1011,3 - 0,0
22.07.2017 21:00:00 16,6 10,4 16 8 31 17 ZW 1011,1 - 0,0
22.07.2017 20:00:00 16,8 11,3 22 12 42 23 ZW 1010,8 - 0,0
22.07.2017 19:00:00 20,1 9,0 21 12 37 20 ZW 1010,3 - 0,0
22.07.2017 18:00:00 20,7 8,0 16 9 32 17 WZW 1010,1 - 0,0
22.07.2017 17:00:00 20,7 7,0 18 10 41 22 ZW 1010,2 - 0,0
22.07.2017 16:00:00 18,7 12,7 22 12 31 17 WNW 1010,4 - 0,0
22.07.2017 15:00:00 18,9 12,6 19 11 27 15 WNW 1010,5 - 0,0
22.07.2017 14:00:00 19,1 12,6 11 6 22 12 ZO 1010,4 - 0,0
22.07.2017 13:00:00 19,1 11,1 14 7 24 13 Z 1010,5 - 0,0
22.07.2017 12:00:00 19,2 11,2 14 8 24 13 Z 1010,3 - 0,0
22.07.2017 11:00:00 19,2 12,0 14 7 32 17 ZZW 1010,2 - 0,0
22.07.2017 10:00:00 18,4 12,6 14 8 29 16 ZZW 1009,8 - 0,0
22.07.2017 09:00:00 16,4 12,7 19 10 32 17 ZZW 1009,4 - 0,2
22.07.2017 08:00:00 15,8 11,2 15 8 28 15 Z 1009,2 - 0,0
22.07.2017 07:00:00 17,0 10,4 15 8 24 13 Z 1008,7 - 0,0
22.07.2017 06:00:00 16,5 9,9 16 8 24 13 Z 1008,4 - 0,0
22.07.2017 05:00:00 16,7 9,9 13 7 22 12 Z 1008,2 25 0,0
22.07.2017 04:00:00 16,8 10,2 13 7 19 10 Z 1008,2 - 0,0
22.07.2017 03:00:00 17,5 10,6 12 6 17 9 ZZO 1008,5 - 0,0
22.07.2017 02:00:00 17,4 10,0 9 5 18 10 ZZO 1008,8 25 0,0
22.07.2017 01:00:00 17,8 10,9 11 6 16 9 ZZO 1009,0 - 0,0
22.07.2017 00:00:00 18,3 11,8 9 5 10 6 ZZO 1009,0 - 0,0
21.07.2017 23:00:00 18,2 10,6 3 2 8 4 O 1008,9 - 0,0
21.07.2017 22:00:00 18,5 10,8 5 3 9 5 NNO 1008,9 - 0,0
21.07.2017 21:00:00 19,3 10,8 6 3 14 8 N 1008,7 - 0,0
21.07.2017 20:00:00 19,6 11,1 11 6 21 12 NNW 1008,9 25 0,0
21.07.2017 19:00:00 19,6 10,8 16 9 24 13 NW 1009,1 - 0,0
21.07.2017 18:00:00 20,0 12,7 16 9 27 14 NW 1009,3 - 0,0
21.07.2017 17:00:00 19,6 12,4 19 11 39 21 NW 1009,8 25 0,0
21.07.2017 16:00:00 24,1 8,9 22 12 36 20 ZZO 1009,8 - 0,0
21.07.2017 15:00:00 24,2 9,0 24 13 40 21 ZZO 1010,2 - 0,0
21.07.2017 14:00:00 23,3 8,9 25 13 42 23 ZZO 1010,7 - 0,0
21.07.2017 13:00:00 22,1 8,9 23 12 36 19 ZZO 1011,6 - 0,0
21.07.2017 12:00:00 21,7 9,6 24 13 39 21 ZZO 1012,1 - 0,0
21.07.2017 11:00:00 19,8 9,1 21 11 31 17 ZZO 1012,8 20 -
21.07.2017 10:00:00 17,8 -7,6 18 10 26 14 ZZO 1013,2 - 0,0
21.07.2017 09:00:00 16,5 -1,2 17 9 24 13 Z 1013,4 - 0,0
21.07.2017 08:00:00 14,3 -0,6 14 8 22 12 Z 1013,2 20 0,0
21.07.2017 07:00:00 12,7 1,7 14 8 21 11 Z 1013,1 - 0,0
21.07.2017 06:00:00 12,5 2,3 11 6 19 10 Z 1013,2 - 0,0
21.07.2017 05:00:00 12,7 4,9 12 7 19 10 Z 1013,1 25 0,0
21.07.2017 04:00:00 12,9 -3,8 14 7 19 10 Z 1013,4 - 0,0
21.07.2017 03:00:00 13,5 3,0 13 7 19 10 Z 1013,6 - 0,0
21.07.2017 02:00:00 14,1 7,4 13 7 20 11 ZZW 1013,7 - 0,0
21.07.2017 01:00:00 14,7 7,7 15 8 24 13 ZZW 1013,4 - 0,0
21.07.2017 00:00:00 15,9 -7,7 17 9 33 18 ZZW 1013,3 - 0,0
20.07.2017 23:00:00 16,6 -10,2 22 12 43 23 ZW 1013,3 18 0,0
20.07.2017 22:00:00 17,0 -9,9 21 11 49 27 ZW 1013,2 - 0,0
20.07.2017 21:00:00 17,8 -9,2 26 14 50 27 ZW 1012,7 - 0,0
20.07.2017 20:00:00 18,3 -8,0 28 15 51 28 ZW 1012,2 18 0,0
20.07.2017 19:00:00 19,2 -7,3 29 16 54 29 ZW 1011,6 - 0,0
20.07.2017 18:00:00 19,7 -7,7 31 17 64 34 WZW 1011,1 - 0,0
20.07.2017 17:00:00 20,1 -7,4 37 20 68 37 WZW 1010,1 - 0,0
20.07.2017 16:00:00 20,4 -7,1 39 21 71 38 WZW 1009,3 - 0,0
20.07.2017 15:00:00 20,4 -8,0 36 19 63 34 ZW 1008,4 - 0,0
20.07.2017 14:00:00 20,1 -7,4 25 14 53 29 ZW 1007,7 - 0,2
20.07.2017 13:00:00 19,6 -8,7 23 13 46 25 ZZW 1007,8 - 0,0
20.07.2017 12:00:00 20,5 -8,0 22 12 39 21 ZW 1007,6 - 0,0
20.07.2017 11:00:00 21,5 -7,2 18 10 38 21 ZW 1007,1 20 0,0
20.07.2017 10:00:00 21,2 -7,4 23 13 39 21 ZZW 1007,0 - 0,0
20.07.2017 09:00:00 20,4 -8,0 15 8 30 16 ZW 1007,1 - 0,0
20.07.2017 08:00:00 19,9 -7,5 16 8 27 15 ZW 1007,1 - 0,0
20.07.2017 07:00:00 19,1 -8,2 13 7 19 10 ZZW 1007,1 - 0,0
20.07.2017 06:00:00 19,1 -8,2 11 6 32 17 ZZW 1006,9 - 2,4
20.07.2017 05:00:00 19,2 -8,1 13 7 21 12 Z 1007,2 - 0,0
20.07.2017 04:00:00 19,6 -7,8 12 7 17 9 Z 1007,7 - 0,0
20.07.2017 03:00:00 19,4 -7,9 10 6 16 9 Z 1007,8 - 0,0
20.07.2017 02:00:00 19,4 -7,9 11 6 19 11 Z 1008,1 18 0,0
20.07.2017 01:00:00 19,4 -7,9 14 7 21 11 Z 1008,3 - 0,0
20.07.2017 00:00:00 20,0 -8,4 10 5 21 12 ZZW 1008,1 - 0,0
19.07.2017 23:00:00 20,3 -7,2 11 6 22 12 ZW 1008,4 18 0,0
19.07.2017 22:00:00 19,8 -8,5 22 12 34 18 W 1008,1 - 0,0
19.07.2017 21:00:00 21,0 -7,6 16 8 37 20 WZW 1007,8 - 0,0
19.07.2017 20:00:00 22,2 -6,6 20 11 46 25 ZW 1008,0 - 0,0
19.07.2017 19:00:00 22,7 -6,2 26 14 50 27 WZW 1007,3 - 0,0
19.07.2017 18:00:00 21,9 -6,8 26 14 46 25 W 1007,2 - 0,0
19.07.2017 17:00:00 22,9 -6,0 29 15 41 22 W 1007,3 - 0,0
19.07.2017 16:00:00 21,4 -7,2 31 17 51 27 W 1007,3 - 0,0
19.07.2017 15:00:00 22,8 -6,1 35 19 47 26 W 1006,9 - 0,0
19.07.2017 14:00:00 22,8 -6,1 28 15 38 20 W 1006,6 - 0,0
19.07.2017 13:00:00 24,6 -4,7 20 11 30 16 W 1006,8 - 0,0
19.07.2017 12:00:00 26,4 -3,3 19 10 29 16 ZZW 1006,9 - 0,0
19.07.2017 11:00:00 26,1 -3,5 16 9 36 19 ZZW 1006,3 18 0,0
19.07.2017 10:00:00 25,7 -3,8 22 12 36 19 ZZW 1006,6 - 0,0
19.07.2017 09:00:00 24,6 -4,7 22 12 34 19 Z 1006,4 - 0,0
19.07.2017 08:00:00 22,3 -6,5 17 9 26 14 ZZO 1005,8 20 0,0
19.07.2017 07:00:00 21,0 -6,7 18 10 34 19 ZZO 1006,0 20 0,0
19.07.2017 06:00:00 20,9 -7,6 24 13 34 19 ZO 1006,1 - 0,0
19.07.2017 05:00:00 21,1 -7,5 21 11 41 22 OZO 1006,9 - 0,4
19.07.2017 04:00:00 21,6 -7,1 24 13 46 25 OZO 1007,3 - 0,0
19.07.2017 03:00:00 21,9 -6,8 31 17 46 25 OZO 1007,8 - 0,0
19.07.2017 02:00:00 21,5 -7,2 23 13 37 20 O 1009,3 - 0,0
19.07.2017 01:00:00 21,9 -6,8 26 14 35 19 O 1010,0 - 0,0
19.07.2017 00:00:00 21,6 -7,1 17 9 28 15 O 1011,0 - 0,0
18.07.2017 23:00:00 22,1 -6,7 22 12 29 15 ONO 1011,5 - 0,0
18.07.2017 22:00:00 21,8 -6,9 21 12 34 19 ONO 1011,9 - 0,0
18.07.2017 21:00:00 22,1 -6,7 29 16 39 21 NO 1012,0 - 0,0
18.07.2017 20:00:00 22,6 -6,3 30 16 40 21 ONO 1012,6 - 0,0
18.07.2017 19:00:00 23,2 -5,8 29 16 45 24 NO 1013,1 - 0,0
18.07.2017 18:00:00 23,6 -5,5 33 18 48 26 NO 1013,9 - 0,0
18.07.2017 17:00:00 23,9 -5,3 35 19 47 25 NO 1014,3 - 0,0
18.07.2017 16:00:00 24,4 -4,9 34 19 47 25 NO 1014,6 - 0,0
18.07.2017 15:00:00 24,1 -5,1 33 18 45 25 NO 1015,2 - 0,0
18.07.2017 14:00:00 24,0 -5,2 31 17 40 22 NO 1016,0 - 0,0
18.07.2017 13:00:00 23,6 -5,5 27 15 36 20 NO 1017,0 - 0,0
18.07.2017 12:00:00 23,2 -5,8 25 13 32 17 NO 1017,5 - 0,0
18.07.2017 11:00:00 22,3 -6,5 21 12 29 15 ONO 1018,2 20 0,0
18.07.2017 10:00:00 20,1 4,6 22 12 29 16 O 1018,6 - 0,0
18.07.2017 09:00:00 18,9 -1,0 20 11 29 15 O 1019,1 - 0,0
18.07.2017 08:00:00 18,6 -5,5 21 11 33 18 O 1019,3 20 0,0
18.07.2017 07:00:00 17,9 -4,1 23 13 36 19 O 1019,5 - 0,0
18.07.2017 06:00:00 17,5 -2,8 24 13 36 19 OZO 1019,7 - 0,0
18.07.2017 05:00:00 17,2 0,3 17 9 26 14 O 1020,0 20 0,0
18.07.2017 04:00:00 17,3 6,2 14 7 30 16 O 1020,5 - 0,0
18.07.2017 03:00:00 18,1 -1,2 21 11 34 18 O 1020,9 - 0,0
18.07.2017 02:00:00 18,0 -0,3 16 8 23 12 O 1021,3 20 0,0
18.07.2017 01:00:00 18,2 -5,2 14 7 34 18 O 1021,7 - 0,0
18.07.2017 00:00:00 18,9 -6,0 26 14 35 19 ONO 1021,8 - 0,0
17.07.2017 23:00:00 19,1 -5,1 26 14 36 19 ONO 1022,1 20 0,0
17.07.2017 22:00:00 19,3 -0,7 27 15 35 19 ONO 1022,0 - 0,0
17.07.2017 21:00:00 19,6 -8,7 28 15 36 19 NO 1021,8 - 0,0
17.07.2017 20:00:00 20,5 -7,1 28 15 37 20 NO 1021,6 22 0,0
17.07.2017 19:00:00 20,9 4,0 29 16 36 20 NO 1021,8 - 0,0
17.07.2017 18:00:00 21,7 14,1 29 16 37 20 NO 1022,1 - 0,0
17.07.2017 17:00:00 22,3 13,4 24 13 34 18 NO 1022,4 22 0,0
17.07.2017 16:00:00 22,7 12,9 24 13 32 18 NO 1022,7 - 0,0
17.07.2017 15:00:00 22,0 12,3 27 14 33 18 NO 1023,1 - 0,0
17.07.2017 14:00:00 22,0 13,6 19 11 28 15 NNO 1023,2 18 0,0
17.07.2017 13:00:00 21,8 5,2 18 10 26 14 NO 1023,3 - 0,0
17.07.2017 12:00:00 21,8 14,4 19 10 27 15 NO 1023,3 - -
17.07.2017 11:00:00 20,9 - 22 12 27 15 NNO - 18 0,0
17.07.2017 10:00:00 21,2 - 19 10 24 13 NO - - 0,0
17.07.2017 09:00:00 20,1 - 17 9 26 14 NO - - 0,0
17.07.2017 08:00:00 19,2 - 14 7 23 13 NO - - 0,0

tt = temperatuur
td = dauwpunt
ff = windsnelheid
fx = windstoten
dd = windrichting
ppp = luchtdruk
vv = zicht
rr = neerslag

Weerstations in de omgeving